Weather in Inyakino

Russia / Ryazan Oblast     54°26′03″N   41°06′46″E
temp.,
°C
wind,
m/s
gust,
m/s
humid.,
%
clouds,
%
prec.,
mm/h
press.,
hPa
HPBL,
m
27 october, wed
wed2700:00+3sw61466100 0.0 1022425
03:00+3sw61366100 0.0 1021387
06:00+2sw61368100 0.0 1020343
09:00+4sw61465100 0.0 1019459
12:00+7sw81357100 0.0 1018734
15:00+8sw8135899 0.0 1016997
18:00+7wsw71365100 0.0 1016895
21:00+6w61176100 0.5 1015703
28 october, thu
thu2800:00+6w5108286 0.0 1016676
03:00+5sw51086100 0.0 1016321
06:00+4sw51190100 0.0 1015273
09:00+6sw61280100 0.0 1014458
12:00+6sw71389100 0.8 1012697
15:00+7wsw51191100 1.1 1012572
18:00+7w4109499 0.4 1012437
21:00+8n5991100 0.6 1015628
29 october, fri
fri2900:00+6nne61084100 0.0 1020945
03:00+6n5976100 0.0 1023595
06:00+4ne3693100 0.0 1026232
09:00+2ne347785 0.0 1029264
12:00+5nne115740 0.0 1030457
15:00+6wsw136491 0.0 1030532
18:00+4ssw33826 0.0 103149
21:00+3sw38885 0.0 1031150
30 october, sat
sat3000:00+3sw4108643 0.0 1031209
03:00+3sw41187100 0.0 1031223
06:00+3sw41088100 0.0 1031217
09:00+5wsw5117987 0.0 1031306
12:00+9wsw596359 0.0 1031431
15:00+9wsw59645 0.0 1031464
18:00+5sw49825 0.0 1031172
21:00+4sw38875 0.0 1032137
31 october, sun
sun3100:00+4wsw36905 0.0 1032110
03:00+3sw369112 0.0 1032109
06:00+3sw379229 0.0 1032114
09:00+4sw388545 0.0 1032220
12:00+9wsw57635 0.0 1032404
15:00+10sw48615 0.0 1031419
18:00+6sw37755 0.0 1031104
21:00+4sw36745 0.0 103187